Other Public Products
Issued by NWS Grand Forks, ND

Home | Current Version | Previous Version | Text Only | Print | Product List | Glossary Off
Versions: 1 2 3 4 5 6 7 8 9 10 11 12 13 14 15 16 17 18 19 20 21 22 23 24 25 26 27 28 29 30 31 32 33 34 35 36 37 38 39 40 41 42 43 44 45 46 47 48 49 50

000
FPUS83 KFGF 291331
OPUFGF
PRAIRIE TO PINES WEATHER ROUNDUP
NATIONAL WEATHER SERVICE EASTERN NORTH DAKOTA/GRAND FORKS ND
800 AM CDT FRI MAY 29 2015

 **SATELLITE DATA USED TO AUGMENT SKY COVER AT AUTOMATED STATIONS**
 *****  WEATHER ACROSS EASTERN NORTH DAKOTA  *****

CITY           SKY/WX    TMP DP  RH WIND       PRES   REMARKS
GRAND FORKS    CLOUDY    45  40  82 N26G36    30.08R
GRAND FORKS AF CLOUDY    45  38  76 N25G39    30.09R
GRAND CITY NWS   N/A     43 N/A N/A N22         N/A
BUXTON           N/A     46  44  93 N17         N/A
DEVILS LAKE    CLOUDY    45  32  61 N25G33    30.14R
FARGO          CLOUDY    50  45  83 N24G36    30.01R
WAHPETON ARPT  CLOUDY    48  46  93 N25G35    29.97R
$$

 *****  WEATHER ACROSS CENTRAL AND WESTERN NORTH DAKOTA  *****

CITY           SKY/WX    TMP DP  RH WIND       PRES   REMARKS
JAMESTOWN      CLOUDY    48  44  86 N28G35    30.07R
BISMARCK       CLOUDY    49  43  80 N18       30.16R
MINOT          CLOUDY    45  35  68 N18G24    30.21R
MINOT AFB      CLOUDY    46  42  84 N15G23    30.22R
GARRISON         N/A     47  37  68 N23       30.19R
WILLISTON      CLOUDY    45  33  63 N13       30.29R
DICKINSON      CLOUDY    44  36  73 N13       30.20R
HETTINGER      CLOUDY    45  42  89 N21G29    30.19R
$$

 *****  OTHER OBSERVATIONS NORTHEAST NORTH DAKOTA  *****

CITY           SKY/WX    TMP DP  RH WIND       PRES   REMARKS
WALHALLA         N/A     45  43  93 MISG      30.16R
LANGDON        CLOUDY    43  36  75 N25G31    30.15R
CAVALIER       NOT AVBL
GRAFTON        CLOUDY    43  39  87 N24G33    30.12R
CANDO          PTSUNNY   45  37  76 N25       30.18R
FORT TOTTEN      N/A     46  40  79 N8        29.95S
ROLLA          CLOUDY    41  39  93 N21       30.19R
RUGBY          NOT AVBL
 ***** THE ABOVE OBSERVATIONS ARE NON NWS ARE NOT QUALITY
        CONTROLLED AND MAY MIS-REPORT RAIN FOR SNOW...
$$

 *****  OTHER OBSERVATIONS SOUTHEAST NORTH DAKOTA *****

CITY           SKY/WX    TMP DP  RH WIND       PRES   REMARKS
COOPERSTOWN    NOT AVBL
VALLEY CITY    CLOUDY    48  46  93 N20G30    30.07R
OAKES            N/A     50  50 100 N25G31    30.03R
GWINNER        NOT AVBL
SHEYENNE NWR     N/A     49  47  91 N15       29.95S
BUFFALO        NOT AVBL
WYNDMERE         N/A     48  50 100 N20         N/A
 ***** THE ABOVE OBSERVATIONS ARE NON NWS ARE NOT QUALITY
       CONTROLLED AND MAY MIS-REPORT RAIN FOR SNOW...
$$

  *****  WEATHER ACROSS NORTHERN MINNESOTA  *****

CITY           SKY/WX    TMP DP  RH WIND       PRES   REMARKS
FLAG ISLAND    CLOUDY    46  43  87 N26G35    30.01R
WARROAD        CLOUDY    45  41  87 N15G25    30.04R
ROSEAU         CLOUDY    45  39  81 N17G25    30.04R
HALLOCK        CLOUDY    43  37  81 N21G28    30.11R
THF RVR FALLS  CLOUDY    45  43  93 N17G31    30.04R
HALSTAD          N/A     47  43  85 N28         N/A
FOSSTON        CLOUDY    46  45  93 N17G25    30.01R
BAUDETTE       CLOUDY    48  45  89 N18       29.98R
WASKISH        CLOUDY    50  48  93 NW15      29.96R
CROOKSTON      CLOUDY    46  43  87 N26       30.06R
$$
  *****  WEATHER ACROSS CENTRAL AND WEST MINNESOTA  *****

CITY           SKY/WX    TMP DP  RH WIND       PRES   REMARKS
BEMIDJI        DRIZZLE   53  52  97 NW14G20   29.94R
PARK RAPIDS    LGT RAIN  59  55  87 N16       29.91R
WADENA         CLOUDY    61  59  94 NW9       29.90R
DETROIT LAKES  CLOUDY    52  52 100 N17G26    29.97R FOG
MOORHEAD       CLOUDY    46  45  93 N30G36    30.02R
FERGUS FALLS   CLOUDY    55  55 100 N10G22    29.95R FOG
ELBOW LAKE     CLOUDY    58  58  97 N14       29.91R
MORRIS MN      CLOUDY    63  61  94 N10       29.90R
STAPLES        CLOUDY    61  57  88 W5        29.90R
WHEATON        CLOUDY    52  50  93 N20G31    29.96R
$$
  *****  WEATHER ELSEWHERE ACROSS MINNESOTA  *****

CITY           SKY/WX    TMP DP  RH WIND       PRES   REMARKS
DULUTH         LGT RAIN  60  55  83 SW8       29.86S
INTRNTL FALLS  CLOUDY    57  54  89 NW10      29.91R
ELY            NOT AVBL
CLOQUET        CLOUDY    55  52  88 CALM      29.87S
BRAINERD       CLOUDY    63  59  87 NW5       29.89R
HIBBING        LGT RAIN  55  51  86 SE3       29.86S
ALEXANDRIA     CLOUDY    62  59  90 N8        29.91R
SAINT CLOUD    CLOUDY    64  62  93 NW5       29.87R
MINNEAPOLIS    CLOUDY    66  63  90 S10       29.87S
$$

  *****  WEATHER ACROSS SOUTH DAKOTA  *****

CITY           SKY/WX    TMP DP  RH WIND       PRES   REMARKS
SIOUX FALLS    LGT RAIN  64  63  96 NW5       29.88R FOG
BROOKINGS      CLOUDY    63  59  88 N6        29.89S
WATERTOWN      CLOUDY    60  57  89 N6        29.91R
HURON            N/A    N/A N/A N/A MISG      29.89R
SISSETON         N/A     53  53 100 N22G33    29.96R
ABERDEEN       LGT RAIN  53  50  89 N26G38    30.00R FOG
MITCHELL       CLOUDY    64  62  93 NW5       29.88R
PIERRE         RAIN      55  54  96 N28G35    30.00R FOG
MOBRIDGE       CLOUDY    53  49  86 N25G35    30.06R
RAPID CITY     LGT RAIN  50  49  96 N21G31    30.12R
$$

  *****  SOME WEATHER IN NEARBY STATES *****

CITY           SKY/WX    TMP DP  RH WIND       PRES   REMARKS
GLASGOW MT     SUNNY     41  35  79 NE5       30.34R
GREAT FALLS MT CLOUDY    46  44  93 E5        30.28S FOG
CHEYENNE WY    CLOUDY    48  41  76 N12       30.20R
SCOTTSBLUFF NE CLOUDY    54  51  90 W9        30.13R
OMAHA NE       CLOUDY    67  64  90 S12       29.92R
DES MOINES IA  PTSUNNY   66  62  87 S8        29.94R
DAVENPORT IA   CLOUDY    70  64  81 S13       29.98S
CHICAGO IL     PTSUNNY   72  64  76 S8        30.03R
EAU CLAIRE WI  CLOUDY    66  60  81 S10       29.90S
LA CROSSE WI   PTSUNNY   69  62  78 S13       29.93R
$$

  *****  SOME NATIONAL WEATHER *****

CITY           SKY/WX    TMP DP  RH WIND       PRES   REMARKS
LA GUARDIA NY  SUNNY     69  54  58 NE8       30.30S
RALEIGH NC     MOSUNNY   74  66  76 S6        30.26R
ATLANTA GA     PTSUNNY   70  64  81 SE6       30.22R
NEW ORLEANS LA MOSUNNY   79  71  76 SE9       30.06R
OKLAHOMA CITY  CLOUDY    65  63  93 CALM      29.96F
ALBUQUERQUE NM PTSUNNY   61  37  41 N8        30.15R
SALT LAKE CITY CLEAR     52  44  74 S5        30.17R
LOS ANGELES CA CLOUDY    59  56  89 SE5       29.95R
BOISE ID       CLEAR     59  46  62 S9        30.10R
SEATTLE WA     MOCLDY    57  53  86 CALM      30.01R
$$

*** WEATHER ACROSS MANITOBA...SASKATCHEWAN AND ONTARIO ***
                ***ONTARIO***

CITY           SKY/WX    TMP DP  RH WIND       PRES   REMARKS
GERALDTON      PTSUNNY   59  54  82 S8        29.82F
THUNDER BAY    PTSUNNY   50  46  87 NE5       29.86F
SIOUX LOOKOUT  DRIZZLE   52  50  93 N8        29.89R
TORONTO        PTSUNNY   68  54  60 SE7       30.23F
BIG TROUT LK   LGT RAIN  36  36 100 E12G20    29.99S
PICKLE LAKE    CLOUDY    45  43  93 NE6       29.86R FOG
DRYDEN         CLOUDY    50  48  93 NW12G18   29.91R
KENORA         CLOUDY    43  41  93 NW20G26   29.98R
$$
                *** MANITOBA***

CITY           SKY/WX    TMP DP  RH WIND       PRES   REMARKS
BRANDON        CLOUDY    43  32  65 N21G26    30.24R
DAUPHIN        MOSUNNY   39  34  81 N17G26    30.29R
ISLAND LAKE    LGT SNOW  32  32 100 N12G21    30.12R FOG     WCI  23
PILOT MOUND      N/A     41  34  75 N25G37      N/A
THE PAS        PTSUNNY   34  27  75 N9G18     30.37R
THOMPSON       FLURRIES  28  23  80 N14       30.34R WCI  17
WINNIPEG       CLOUDY    39  34  81 N20G25    30.17R
LYNN LAKE      MOSUNNY   28  23  80 N9        30.41R WCI  20
CHURCHILL      FLURRIES  28  23  80 NE8       30.41S WCI  20
GILLAM         SNOW      27  25  93 N20       30.29R VSB 3/8 WCI  13
$$
                ***SASKATCHEWAN***

CITY           SKY/WX    TMP DP  RH WIND       PRES   REMARKS
ESTEVAN        CLOUDY    43  32  65 N15       30.29R
KINDERSLEY     MOSUNNY   39  32  75 SE12      30.36R
LLOYDMINSTER   MOSUNNY   39  30  70 S6        30.37R
PRINCE ALBERT  MOSUNNY   36  27  69 E7        30.42R
REGINA         PTSUNNY   41  28  60 N12       30.33



USA.gov is the U.S. government's official web portal to all federal, state and local government web resources and services.